www.pogodaiklimat.ru

Погода и климат >> Архив погоды >> Германия >> Leuchtturm Kiel


ПОГОДА в Leuchtturm Kiel

  • Прогноз погоды в Leuchtturm Kiel
  • Монитор погоды в Leuchtturm Kiel
  • Климат города

АРХИВ ПОГОДЫ в Leuchtturm Kiel

Время (UTC), дата Ветер
(напр.,м/с)
 
Видим.   Явления Облачность Т
(С)
Тd
(С)
f
(%)
Тe
(С)
Тes
(С)
Комфортность P
(гПа)
Po
(гПа)
Тmin
(С)
Tmax
(С)
R
(мм)
R24
(мм)
S
(см)
19 18.04 СВ 11
{14}
н/о н/о +4.2 -4.9 52 -2 -2 1032.7 1029.4
20 18.04 СВ 10
{13}
н/о н/о +3.9 -3.8 57 -2 -2 1033.2 1029.9
21 18.04 СВ 7
{14}
н/о н/о +3.8 -3.9 57 -2 -2 1033.5 1030.2
23 18.04 СВ 6 н/о н/о +4.0 -3.5 58 -1 -1 1034.1 1030.8
22 18.04 СВ 6 н/о н/о +4.0 -3.1 60 -1 -1 1033.8 1030.5
00 19.04 СВ 6
{14}
н/о н/о +4.1 -4.0 56 -1 -1 1034.2 1030.9
01 19.04 СВ 4 н/о н/о +4.0 -3.5 58 0 0 1034.5 1031.2
02 19.04 С 5 н/о н/о +4.1 -3.4 58 -0 -0 1034.7 1031.4
03 19.04 СВ 5 н/о н/о +4.1 -4.4 54 -0 -0 1034.7 1031.4
05 19.04 С 6 н/о н/о +4.2 -3.7 56 -1 -1 1035.2 1031.9
04 19.04 С 5 н/о н/о +4.0 -4.0 56 -0 -0 1035.0 1031.7
06 19.04 С 5 н/о н/о +4.6 -2.5 60 0 0 1035.6 1032.3 +3.7 +4.9
07 19.04 С 6 н/о н/о +4.7 -3.6 55 0 0 1036.1 1032.8
13 19.04 СВ 2 н/о н/о +5.2 -5.6 46 +3 +3 1037.4 1034.1
11 20.04 З 9 н/о н/о +6.8 -1.0 58 +2 +2 1034.1 1030.8
10 20.04 ЮЗ 8 н/о н/о +6.5 -0.9 59 +2 +2 1034.6 1031.3
14 20.04 З 9 н/о н/о +7.1 -0.5 58 +2 +2 1032.4 1029.2
15 20.04 ЮЗ 10 н/о н/о +7.2 -0.5 58 +2 +2 1031.7 1028.4
16 20.04 З 8 н/о н/о +7.6 +0.3 60 +3 +3 1031.2 1028.0
18 20.04 ЮЗ 9 н/о н/о +7.6 +1.8 67 +3 +3 1030.4 1027.2
21 20.04 ЮЗ 8 н/о н/о +7.4 +3.3 75 +3 +3 1029.6 1026.3
23 20.04 ЮЗ 11
{14}
н/о н/о +7.4 +5.0 85 +2 +2 1027.8 1024.6
22 20.04 ЮЗ 10 н/о н/о +7.4 +4.2 80 +2 +2 1028.7 1025.5
00 21.04 З 11
{14}
н/о н/о +7.4 +5.4 87 +2 +2 1027.4 1024.2
01 21.04 З 10
{13}
н/о н/о +8.0 +6.2 88 +3 +3 1026.7 1023.5
02 21.04 З 12
{14}
н/о н/о +7.8 +6.6 92 +2 +2 1025.8 1022.6
03 21.04 З 12
{14}
н/о н/о +7.8 +6.9 94 +2 +2 1025.6 1022.4
05 21.04 З 9 н/о н/о +7.9 +7.1 95 +3 +3 1024.4 1021.2
04 21.04 З 10
{13}
н/о н/о +7.9 +7.1 95 +2 +2 1025.0 1021.7
06 21.04 ЮЗ 10 н/о н/о +8.2 +7.0 92 +3 +3 1023.7 1020.4
08 21.04 З 12
{14}
н/о н/о +9.1 +7.3 88 +4 +4 1022.7 1019.5
09 21.04 ЮЗ 12
{15}
н/о н/о +9.6 +7.5 87 +5 +5 1022.4 1019.2
10 21.04 ЮЗ 12
{15}
н/о н/о +10.4 +7.5 82 +6 +6 1021.7 1018.5
17 24.04 З 12
{15}
н/о н/о +7.6 +1.0 63 +2 +2 1006.2 1003.0
16 24.04 З 13
{17}
н/о н/о +7.1 +3.9 80 +1 +1 1006.2 1003.0
21 24.04 СЗ 5 н/о н/о +5.5 -1.8 59 +1 +1 1006.3 1003.1

 

Местоположение метеостанции Leuchtturm Kiel (Германия): широта 54.50 долгота 10.28 высота над уровнем моря 21 м.

В архиве по умолчанию представлена погода в Leuchtturm Kiel за последнюю неделю. Архивные данные за месяц целиком и за предыдущие месяцы, начиная с января 2011 года, Вы можете получить, выбрав интересующий диапазон дат из раскрывающегося списка и нажав кнопку "Ввод!".

Внимание! Время в таблицах - всемирное. Для получения местного времени необходимо прибавить поправку, которая в Leuchtturm Kiel равна 1 ч.

Смотрите также архив погоды в соседних городах и на ближайших метеорологических станциях:

Погода в Kiel-Holtenau (Германия) (16 км)
Погода в Olpenitz (Германия) (25 км)
Погода в Doernick (Германия) (37 км)
Погода в Kegnaes (Дания) (43 км)
Погода в Schleswig (Германия) (47 км)
Погода в Schleswig Airport (Германия) (49 км)
Погода в Westermarkelsdorf (Германия) (51 км)
Погода в Hohn (Германия) (53 км)
Погода в Langoe (Дания) (58 км)
Погода в Taasinge (Дания) (61 км)

Пояснения к столбцам:

Ветер - указаны скорость ветра в м/с - средняя за 10 мин, порывы в срок и между сроками (в фигурных скобках) и направление, откуда дует ветер: С - северный, СВ - северо-восточный, В - восточный, ЮВ - юго-восточный, Ю - южный, ЮЗ - юго-западный, З - западный, СЗ - северо-западный.
Видимость - горизонтальная дальность видимости в метрах или километрах. При видимости от 1 до 10 км при отсутствии осадков обычно наблюдается дымка, при ухудшении видимости до 1 км и менее - туман. В сухую погоду видимость может ухудшаться дымом, пылью или мглою.
Явления - указаны атмосферные явления, наблюдавшиеся в срок или в последний час перед сроком; фигурными скобками обозначены явления, наблюдавшиеся между сроками (за 1-3 часа до срока); квадратными скобками обозначены град или гололедные отложения с указанием их диаметра в мм.
Облачность - указаны через наклонную черту общая и нижняя облачность в баллах и высота нижней границы облаков в метрах; квадратными скобками обозначены формы облаков: Ci - перистые, Cs - перисто-слоистые, Cc - перисто-кучевые, Ac - высококучевые, As - высокослоистые, Sc - слоисто-кучевые, Ns - слоисто-дождевые, Cu - кучевые, Cb - кучево-дождевые. Подробнее классификацию облаков см. в Атласе облаков (PDF).
T - Температура воздуха - температура, измеренная на высоте 2 м над землей.
Td - Температура точки росы - температура, при понижении до которой содержащийся в воздухе водяной пар достигнет насыщения.
f - Относительная влажность воздуха - влажноcть воздуха, измеренная на высоте 2 м над землей.
Te - Эффективная температура - температура, которую ощущает одетый по сезону человек в тени. Характеристика душности погоды. При расчете учитывается влияние влажности воздуха и скорости ветра на теплоощущения человека.
Tes - Эффективная температура на солнце - температура, которую ощущает человек, с поправкой на солнечный нагрев. Характеристика знойности погоды. Зависит от высоты солнца над горизонтом, облачности и скорости ветра. Ночью, в пасмурную погоду, а также при ветре 12 м/с и более поправка равна нулю.
P - Атмосферное давление - приведенное к уровню моря атмосферное давление.
Po - Атмосферное давление - измеренное на уровне метеостанции атмосферное давление.
Tmin - Минимальная температура - минимум температуры воздуха на высоте 2 м над землей.
Tmax - Максимальная температура - максимум температуры воздуха на высоте 2 м над землей.
R - Количество осадков - Количество выпавших осадков за период времени, мм. При наведении курсора мыши на число - период времени, за который выпало указанное количество осадков.
R24 - Количество осадков - Количество выпавших осадков за 24 часа, мм.
S - Снежный покров - Высота снежного покрова, см. При наведении курсора мыши на число - состояние снежного покрова и степень покрытия местности в баллах.